Wetbulb
36.76 31.30 26.33 29.05 30.52 30.65 28.85 27.24 27.87 31.01 33.73 28.25 29.38 30.82 33.53 36.11 34.87 33.19 32.27 34.18 35.08 36.13 38.44 39.96 41.14 40.85 41.10 40.95 40.60 41.28 41.52 41.97 43.14 45.12 44.89 44.42 45.46 47.78 49.64 51.03 50.44 50.52 51.03 51.06
32.64 26.37 31.08 33.39 32.80 31.07 28.65 27.27 27.47 30.36 32.57 29.59 28.34 29.00 32.85 35.01 34.95 34.14 33.29 34.01 35.20 35.78 36.70 38.83 39.69 39.33 39.50 39.38 39.95 40.74 41.42 41.82 42.30 43.51 45.95 46.14 45.83 46.98 48.82 49.40 49.77 50.20 51.57 51.55
28.84 29.72 33.33 32.09 30.42 28.87 29.22 26.55 24.91 24.40 28.89 30.87 27.70 26.57 29.50 33.54 35.40 34.78 35.93 36.38 36.30 35.76 36.01 36.57 37.54 38.33 38.60 38.52 39.03 41.14 41.43 41.97 42.10 42.64 43.53 45.01 44.92 44.22 45.02 46.53 47.04 48.85 50.46 51.12
29.05 31.23 31.28 29.00 29.35 29.10 23.88 29.88 28.38 26.89 23.45 20.21 26.47 19.86 28.92 31.43 31.67 33.77 35.53 35.02 33.59 35.16 36.81 37.02 37.78 37.63 37.76 38.59 39.88 40.82 41.93 42.18 42.81 42.19 41.54 40.90 41.02 40.50 41.74 44.19 46.16 46.99 49.01 50.68
26.34 27.92 26.96 27.99 28.54 30.17 27.99 29.69 27.22 25.86 22.36 22.26 22.90 18.28 27.39 31.68 29.92 32.06 33.85 33.97 34.31 35.05 35.61 35.87 36.94 38.49 38.81 39.14 38.60 39.71 40.94 41.78 42.08 41.46 40.89 40.14 39.62 41.17 42.85 43.58 43.99 45.31 47.08 48.98
27.28 31.19 30.19 29.27 31.17 30.60 31.74 27.74 27.95 24.54 21.86 14.95 22.64 21.28 23.11 27.53 30.34 30.53 33.05 33.34 34.43 35.12 35.19 36.35 37.68 38.74 38.21 38.34 38.82 39.68 40.54 40.76 41.36 40.80 39.90 39.30 38.90 39.60 39.68 41.04 42.64 43.79 44.67 47.02
25.23 25.98 29.00 30.54 26.24 29.27 28.40 24.20 20.85 17.81 16.05 20.58 23.88 20.16 25.00 31.33 32.37 32.30 31.56 32.28 34.60 34.87 34.80 35.43 35.69 36.40 37.38 37.27 37.80 39.16 39.58 39.30 40.21 40.06 39.25 38.85 38.92 39.59 39.58 40.07 41.30 43.02 44.22 45.48
24.08 22.88 25.61 28.97 25.72 21.59 23.51 21.14 17.93 12.18 16.18 19.08 22.45 18.55 25.93 33.28 33.10 34.70 34.55 34.40 35.16 34.64 35.02 35.43 36.12 36.15 37.18 37.63 36.94 37.49 38.53 38.89 39.93 39.82 38.84 38.83 38.97 38.99 39.78 40.41 41.24 42.44 43.75 45.03
23.01 23.09 26.73 28.42 28.94 27.13 22.23 20.68 23.49 17.29 16.44 14.15 19.86 25.70 31.81 32.68 32.07 31.99 32.47 32.72 33.24 34.05 34.76 35.38 35.93 36.20 36.58 36.39 37.08 36.79 37.95 38.43 39.30 39.15 39.14 39.33 39.56 38.92 38.99 40.25 41.69 42.49 44.94 46.07
23.45 20.86 24.21 25.87 27.96 27.10 23.40 26.81 18.82 19.02 9.50 8.55 21.69 23.07 25.23 27.46 30.90 32.43 30.49 31.46 32.96 34.30 34.90 35.19 35.47 35.65 36.47 36.49 36.18 36.54 37.22 37.57 38.49 38.74 38.60 38.67 38.75 38.92 39.27 40.36 41.42 42.73 43.73 44.59
23.23 22.95 22.56 23.31 19.97 22.28 20.66 19.62 19.56 18.62 18.65 14.72 14.41 19.23 29.93 28.53 29.85 28.96 29.86 32.29 33.35 33.59 33.99 34.56 34.91 35.92 35.46 35.52 35.26 36.30 36.94 37.11 37.19 37.98 38.72 38.63 38.65 38.96 39.54 39.84 41.73 42.22 43.71 44.27
26.27 22.34 19.17 21.19 24.37 25.63 23.28 22.93 23.16 16.50 14.36 17.25 18.47 17.87 32.75 30.38 30.34 30.59 31.06 33.14 33.86 34.04 33.94 33.66 33.78 35.14 35.53 35.44 35.52 35.67 36.30 36.20 36.24 35.64 36.18 36.50 38.38 38.60 38.99 39.73 40.26 40.38 40.05 41.84
24.14 20.12 14.58 19.10 19.45 21.62 16.78 23.08 24.60 22.57 21.64 14.91 13.34 18.04 32.71 30.30 29.37 30.96 32.01 32.51 33.05 33.96 33.25 33.38 34.35 34.59 34.40 34.53 34.75 35.11 35.67 36.04 34.40 34.87 34.43 35.36 36.77 37.41 37.76 37.69 38.25 38.99 39.95 40.45
30.20 22.46 19.70 18.43 19.61 19.90 13.88 17.69 21.85 17.65 14.13 17.37 20.55 23.91 30.22 32.42 32.24 32.83 33.29 33.28 32.21 32.55 33.04 32.51 33.43 33.58 33.59 34.39 33.97 34.88 33.95 34.32 34.06 34.07 33.91 34.06 34.99 35.42 36.21 36.88 37.47 37.56 37.98 38.08
24.14 11.51 17.76 18.90 21.11 19.59 17.82 17.31 20.34 18.98 21.93 16.46 24.34 23.32 29.03 31.39 31.69 32.29 33.44 32.13 32.30 32.19 32.18 32.05 32.88 32.26 33.28 33.15 34.14 34.26 33.80 33.66 33.18 32.94 33.16 33.33 34.43 35.59 35.90 35.64 35.69 35.70 35.83 36.42
25.32 13.18 14.86 10.52 21.12 20.96 17.52 21.20 21.56 22.37 22.38 22.44 23.57 22.81 30.68 31.95 32.75 31.92 31.83 31.94 31.37 31.22 31.73 32.33 32.82 32.38 33.17 32.72 33.22 33.31 32.56 32.08 32.45 32.82 32.83 33.93 34.23 33.78 33.50 33.82 33.81 34.10 34.34 34.81
21.25 16.67 10.13 9.57 19.39 17.64 12.00 17.92 21.03 21.06 22.87 23.16 18.43 25.20 30.49 29.79 31.23 31.10 31.33 31.25 31.03 31.36 31.42 31.52 31.11 32.61 32.83 32.23 32.91 31.38 30.67 31.32 32.02 31.49 31.84 31.59 31.49 31.20 31.70 32.58 32.72 32.48 32.60 32.93
22.37 17.21 16.22 9.85 9.84 4.73 24.60 25.41 23.64 22.86 25.23 26.93 26.67 28.13 30.09 31.20 32.11 32.04 32.33 31.01 31.38 31.56 31.08 30.95 30.62 32.48 31.81 31.57 31.94 30.04 30.13 30.35 29.97 29.77 29.38 29.80 30.14 30.30 31.13 31.51 31.25 31.35 31.81 31.53
26.26 21.34 11.77 7.30 7.93 18.60 23.98 24.49 21.43 18.75 22.91 28.07 27.76 29.47 30.69 32.17 30.19 30.32 32.81 32.04 31.27 30.19 31.26 30.71 32.57 31.85 30.38 30.71 30.50 29.32 29.40 28.87 27.43 26.97 27.89 28.65 29.28 29.13 30.15 29.89 29.99 30.60 30.55 30.68
25.18 23.60 15.33 6.19 3.48 5.01 22.72 22.44 26.63 23.60 20.24 29.47 30.01 29.91 30.14 29.50 22.02 27.37 31.91 31.86 30.61 31.78 31.69 29.96 31.12 30.24 28.99 27.68 28.79 28.77 28.40 27.29 26.09 27.57 28.03 28.70 29.37 29.49 29.17 29.19 29.26 30.01 30.12 29.38
14.57 11.67 14.51 13.19 7.72 15.94 25.84 25.02 26.11 17.66 25.92 28.25 31.19 31.02 29.88 27.12 30.47 31.80 31.62 30.36 30.76 31.53 28.16 31.34 30.20 29.04 28.21 28.00 28.81 28.06 28.09 26.45 27.23 26.52 27.52 28.70 29.43 29.64 29.82 29.39 29.49 29.85 29.66 29.24
13.49 13.23 11.26 13.33 9.00 9.59 26.53 23.32 22.97 29.08 28.77 28.56 27.75 29.47 29.53 31.01 31.49 31.72 31.09 29.27 29.78 29.98 26.50 28.66 28.62 29.11 28.26 25.45 28.54 27.76 27.46 28.18 25.91 26.42 28.16 27.84 29.46 29.79 30.24 29.15 29.39 29.64 29.35 28.36
16.92 22.02 16.75 19.33 19.37 26.79 28.36 27.84 29.60 28.05 28.47 27.75 28.80 29.86 31.61 30.67 29.96 30.04 28.83 26.46 26.08 26.78 27.64 28.34 27.94 25.72 20.45 20.25 22.57 27.35 27.97 25.51 25.57 23.89 25.60 27.80 28.78 29.95 30.13 29.70 29.29 28.80 28.78 27.63
21.72 26.34 20.17 21.23 25.71 26.48 27.44 30.55 30.87 29.87 28.42 29.77 29.35 29.64 30.59 29.46 29.15 28.26 28.20 27.64 27.81 27.62 26.59 26.95 28.35 24.65 21.71 22.38 24.71 26.85 28.23 23.34 22.21 23.02 23.52 28.80 28.92 28.77 29.11 29.56 29.34 29.20 28.66 27.83
26.07 24.99 23.31 21.66 26.96 27.18 27.85 29.49 31.20 31.11 30.03 29.95 29.56 29.70 29.70 28.75 29.01 28.56 28.33 28.35 28.65 28.91 27.15 26.35 27.26 26.42 25.77 23.72 22.06 22.97 22.93 21.25 22.60 22.87 22.87 24.61 28.95 28.15 28.95 29.91 29.36 29.03 30.46 29.92
25.63 22.43 24.02 24.26 28.30 30.96 31.96 32.47 32.80 30.24 29.70 30.81 30.04 29.09 29.03 29.31 29.53 29.10 28.37 28.40 27.78 27.73 27.18 26.35 26.72 26.07 25.68 25.76 24.90 26.91 23.50 23.12 21.97 27.32 23.58 21.94 24.38 27.40 25.32 25.31 28.84 33.32 33.29 33.27
MSLP
1020.44 1021.20 1022.77 1023.56 1023.51 1023.12 1022.85 1022.99 1022.53 1021.78 1021.98 1021.97 1020.83 1019.64 1018.26 1017.62 1017.39 1017.62 1017.67 1017.64 1017.56 1017.45 1017.21 1016.97 1016.81 1016.65 1016.70 1016.44 1016.10 1016.06 1015.66 1015.50 1015.20 1015.06 1014.83 1014.81 1013.98 1013.16 1012.57 1011.96 1012.07 1011.93 1011.47 1011.16
1021.92 1023.13 1024.28 1024.52 1024.23 1023.82 1023.82 1023.83 1023.38 1022.68 1022.71 1022.97 1021.22 1019.26 1017.77 1017.08 1016.80 1016.90 1017.19 1017.34 1017.30 1017.19 1017.08 1016.98 1016.75 1016.19 1016.08 1016.22 1015.96 1016.06 1015.90 1015.24 1015.06 1015.04 1014.72 1014.59 1014.08 1013.25 1012.40 1011.42 1010.75 1011.35 1010.94 1011.71
1022.99 1024.65 1024.81 1024.84 1024.47 1024.48 1024.05 1024.54 1024.96 1025.27 1023.89 1022.49 1021.72 1019.16 1016.99 1016.19 1016.22 1016.46 1016.76 1016.92 1016.84 1016.89 1016.85 1016.80 1016.67 1016.49 1016.04 1015.98 1015.75 1015.75 1015.54 1015.04 1014.81 1014.64 1014.31 1013.96 1013.65 1012.96 1012.28 1011.58 1011.08 1010.31 1010.17 1010.72
1024.51 1025.31 1025.16 1025.00 1025.03 1025.29 1025.19 1025.36 1025.72 1025.72 1025.34 1023.72 1022.47 1020.03 1017.01 1016.09 1016.11 1016.37 1016.34 1016.32 1016.51 1016.61 1016.58 1016.58 1016.52 1016.33 1016.16 1015.71 1015.58 1015.35 1015.22 1014.85 1014.47 1014.14 1013.83 1013.47 1013.04 1012.49 1012.06 1011.49 1010.77 1010.69 1010.42 1009.43
1025.45 1025.53 1025.49 1025.38 1025.60 1025.86 1025.66 1025.78 1026.01 1026.04 1025.85 1024.80 1022.72 1021.63 1017.14 1016.05 1016.05 1015.81 1015.65 1015.72 1016.07 1016.19 1016.23 1016.32 1016.17 1015.90 1015.65 1015.38 1015.23 1014.83 1014.64 1014.24 1013.84 1013.73 1013.34 1012.85 1012.43 1012.05 1011.37 1010.92 1010.66 1010.31 1009.23 1008.78
1025.95 1026.33 1026.31 1026.27 1026.14 1026.14 1026.02 1025.96 1025.73 1026.04 1025.99 1025.13 1022.72 1021.62 1017.50 1016.10 1015.17 1015.06 1015.21 1015.57 1015.96 1016.03 1016.04 1015.96 1015.52 1015.40 1015.25 1014.89 1014.67 1014.53 1014.29 1013.79 1013.39 1013.07 1012.68 1012.26 1011.81 1011.43 1010.88 1010.41 1009.80 1009.16 1008.70 1008.03
1026.40 1026.66 1026.81 1026.99 1026.62 1026.44 1026.50 1026.36 1026.55 1026.76 1026.27 1024.63 1022.93 1021.92 1017.38 1015.48 1014.97 1015.01 1015.28 1015.62 1015.84 1015.76 1015.69 1015.58 1015.44 1014.97 1014.82 1014.52 1014.38 1014.20 1013.89 1013.31 1012.90 1012.41 1012.02 1011.75 1011.47 1010.99 1010.39 1009.85 1009.34 1008.53 1008.08 1007.75
1026.90 1027.17 1027.31 1027.42 1027.45 1027.52 1027.32 1027.64 1028.06 1027.99 1027.18 1025.37 1023.46 1021.08 1016.62 1014.98 1014.83 1014.88 1015.09 1015.60 1015.81 1015.81 1015.58 1015.31 1014.87 1014.54 1014.26 1014.04 1014.04 1013.76 1013.36 1012.87 1012.52 1011.93 1011.36 1011.07 1010.83 1010.32 1009.64 1009.05 1008.56 1007.74 1006.97 1006.64
1027.67 1027.95 1028.19 1028.22 1028.23 1028.28 1027.93 1028.13 1028.71 1028.73 1028.10 1026.67 1022.84 1019.49 1016.12 1014.97 1014.89 1014.91 1015.31 1015.75 1015.94 1015.67 1015.24 1015.01 1014.62 1014.17 1013.91 1013.94 1013.64 1013.32 1012.97 1012.73 1012.26 1011.61 1011.13 1010.71 1010.25 1009.56 1008.86 1008.18 1007.66 1006.92 1006.15 1005.40
1028.00 1028.48 1028.69 1028.95 1028.92 1029.01 1028.77 1028.91 1029.23 1029.39 1029.10 1027.24 1022.89 1019.97 1016.90 1015.55 1015.26 1015.11 1015.44 1015.90 1015.68 1015.34 1015.10 1014.97 1014.63 1014.16 1013.96 1013.61 1013.27 1013.12 1012.97 1012.62 1012.00 1011.40 1010.86 1010.34 1009.80 1009.14 1008.36 1007.66 1006.88 1006.15 1005.37 1004.69
1028.12 1028.66 1029.63 1029.43 1029.18 1028.89 1029.52 1029.46 1029.89 1030.13 1029.35 1028.28 1025.08 1020.08 1015.89 1015.39 1015.24 1015.34 1015.57 1015.68 1015.22 1015.01 1014.87 1014.67 1014.34 1013.96 1013.73 1013.42 1013.30 1013.20 1013.00 1012.57 1011.94 1011.43 1010.70 1010.00 1009.28 1008.61 1007.78 1007.00 1006.19 1005.28 1004.48 1003.69
1028.37 1028.77 1029.42 1029.24 1029.04 1029.32 1029.38 1029.17 1029.49 1029.85 1029.65 1028.39 1026.58 1020.13 1015.74 1015.16 1015.03 1015.18 1015.33 1015.49 1015.08 1014.81 1014.72 1014.36 1014.02 1013.69 1013.58 1013.44 1013.26 1013.24 1012.92 1012.56 1012.04 1011.77 1011.07 1009.99 1009.00 1008.21 1007.28 1006.33 1005.82 1005.47 1004.58 1003.56
1028.50 1029.28 1029.56 1029.80 1030.12 1030.07 1029.92 1029.49 1029.25 1029.36 1029.31 1027.81 1026.47 1019.47 1015.71 1015.32 1015.20 1015.16 1015.16 1015.00 1014.82 1014.74 1014.25 1014.10 1013.91 1013.82 1013.68 1013.64 1013.60 1013.37 1012.98 1012.37 1012.04 1011.61 1010.87 1009.80 1008.81 1008.04 1007.25 1006.59 1005.88 1005.10 1004.30 1003.47
1028.39 1029.10 1029.41 1029.24 1029.07 1029.16 1030.03 1029.57 1029.13 1029.13 1028.68 1026.36 1023.11 1018.72 1016.37 1015.42 1015.28 1014.93 1015.01 1015.00 1014.81 1014.70 1014.25 1014.19 1014.10 1013.99 1013.99 1013.97 1013.86 1013.30 1012.89 1012.58 1012.08 1011.51 1010.69 1009.77 1008.91 1008.24 1007.35 1006.41 1005.64 1004.98 1004.07 1003.01
1029.16 1029.84 1030.06 1029.33 1028.93 1028.93 1028.69 1028.51 1028.37 1027.86 1025.68 1025.04 1019.98 1019.70 1015.24 1015.89 1015.26 1014.91 1014.75 1014.60 1014.63 1014.53 1014.16 1014.18 1014.29 1014.18 1014.16 1014.13 1013.73 1013.30 1012.95 1012.52 1012.10 1011.40 1010.54 1009.73 1008.89 1007.96 1007.27 1006.47 1005.71 1004.78 1003.74 1002.70
1029.70 1030.24 1030.85 1030.16 1028.80 1028.48 1027.82 1026.57 1026.25 1025.43 1024.58 1023.31 1020.78 1019.25 1014.64 1015.25 1014.80 1014.77 1014.62 1014.44 1014.48 1014.23 1013.89 1014.10 1014.43 1014.37 1014.29 1014.29 1013.92 1013.55 1013.17 1012.76 1012.01 1011.24 1010.54 1009.77 1008.80 1007.94 1007.29 1006.56 1005.70 1004.53 1003.41 1002.44
1029.73 1030.62 1031.46 1030.32 1029.28 1028.20 1026.00 1022.77 1022.40 1022.43 1021.33 1020.43 1020.73 1015.48 1015.38 1014.90 1014.38 1014.01 1014.13 1014.17 1014.30 1014.06 1013.78 1014.21 1014.60 1014.58 1014.63 1014.49 1014.18 1013.83 1013.53 1012.80 1012.03 1011.29 1010.52 1009.74 1008.82 1007.83 1007.05 1006.32 1005.50 1004.62 1003.43 1002.50
1028.89 1030.31 1031.09 1030.56 1029.56 1026.53 1021.01 1020.34 1020.21 1020.12 1018.75 1018.42 1016.73 1014.84 1014.65 1014.27 1013.96 1013.67 1013.76 1013.82 1014.11 1013.93 1013.81 1014.22 1014.59 1014.88 1014.98 1014.84 1014.54 1014.38 1013.76 1012.96 1012.22 1011.44 1010.66 1009.70 1008.76 1007.90 1007.07 1006.26 1005.49 1004.65 1003.82 1002.75
1027.94 1029.28 1030.32 1030.30 1029.07 1023.73 1020.72 1018.94 1019.41 1019.25 1016.06 1015.20 1014.98 1014.17 1014.00 1013.92 1014.22 1013.02 1012.95 1013.41 1013.70 1013.62 1013.74 1014.15 1014.59 1015.12 1015.13 1014.99 1014.79 1014.46 1013.80 1013.27 1012.53 1011.58 1010.74 1009.92 1009.04 1008.29 1007.44 1006.42 1005.66 1004.81 1004.12 1003.08
1028.14 1028.72 1029.29 1029.75 1028.83 1024.48 1019.47 1018.53 1018.24 1017.94 1015.38 1011.80 1012.72 1012.87 1013.36 1013.97 1014.37 1013.08 1012.97 1013.12 1013.32 1013.58 1013.65 1013.98 1014.36 1014.97 1015.12 1014.95 1014.83 1014.41 1013.96 1013.52 1012.76 1011.82 1011.08 1010.44 1009.55 1008.79 1008.03 1007.19 1006.43 1005.50 1004.77 1004.36
1028.60 1029.15 1028.16 1028.11 1026.89 1021.66 1018.12 1018.08 1018.21 1017.40 1013.22 1011.34 1011.61 1011.99 1012.48 1013.30 1012.75 1012.41 1012.60 1012.84 1013.11 1013.53 1013.71 1013.87 1014.22 1014.94 1015.21 1014.98 1014.87 1014.57 1014.16 1013.70 1013.09 1012.15 1011.39 1010.88 1010.12 1009.30 1008.80 1008.04 1007.21 1006.57 1006.01 1005.56
1025.03 1026.45 1026.32 1026.79 1025.37 1020.06 1016.05 1017.56 1016.48 1012.15 1011.27 1011.22 1011.43 1011.52 1011.88 1011.81 1012.15 1012.32 1012.51 1012.84 1013.24 1013.61 1013.66 1013.70 1014.05 1014.80 1015.02 1014.93 1014.85 1014.67 1014.35 1014.10 1013.29 1012.38 1011.39 1011.39 1010.75 1009.90 1009.34 1008.84 1008.32 1007.68 1007.11 1006.71
1021.89 1019.72 1020.75 1020.14 1016.68 1014.44 1013.55 1012.26 1011.78 1011.53 1011.58 1011.29 1011.46 1011.49 1011.76 1011.88 1011.98 1012.12 1012.47 1012.84 1013.27 1013.39 1013.53 1013.55 1013.93 1014.53 1015.00 1014.88 1014.75 1014.72 1014.45 1014.18 1013.51 1012.95 1011.69 1011.86 1011.42 1010.91 1010.13 1009.59 1009.19 1008.69 1008.19 1007.86
1018.26 1017.33 1017.43 1017.11 1013.16 1013.06 1012.48 1011.96 1011.44 1011.31 1011.28 1011.30 1011.41 1011.57 1011.59 1011.80 1011.81 1011.88 1012.12 1012.57 1013.09 1013.05 1013.24 1013.25 1013.70 1014.16 1014.66 1014.51 1014.43 1014.71 1014.61 1014.20 1013.99 1013.49 1012.75 1012.13 1011.93 1011.67 1011.19 1010.56 1010.07 1009.60 1009.37 1009.28
1014.44 1015.11 1014.53 1013.43 1011.89 1012.02 1011.53 1010.95 1010.08 1010.49 1010.78 1010.84 1010.76 1010.88 1011.05 1011.41 1011.45 1011.52 1011.64 1011.91 1012.29 1012.48 1012.53 1012.70 1013.14 1013.52 1013.97 1013.99 1013.95 1014.18 1014.46 1014.29 1014.06 1013.88 1013.45 1013.17 1012.75 1012.48 1012.09 1011.60 1011.27 1010.94 1010.69 1010.58
1011.97 1011.61 1011.74 1009.39 1009.16 1008.83 1008.57 1008.09 1008.40 1009.69 1009.45 1009.49 1010.03 1010.28 1010.09 1010.43 1010.56 1010.66 1010.89 1011.02 1011.45 1011.90 1011.96 1012.12 1012.50 1012.93 1013.23 1013.57 1013.53 1013.65 1013.94 1014.37 1014.19 1014.08 1014.06 1013.62 1013.36 1013.48 1013.17 1012.85 1012.52 1012.14 1011.85 1011.61
Wind_Speed
6 10 7 8 8 5 4 4 9 5 6 6 6 14 13 8 7 8 4 6 6 7 7 6 6 7 8 8 8 8 8 8 5 3 3 6 8 9 7 4 8 12 11 16
4 6 5 2 4 4 2 7 7 9 3 7 9 21 18 11 8 6 5 7 7 6 6 6 7 6 6 7 7 8 9 8 6 5 4 4 5 7 8 7 7 8 10 14
7 4 2 1 2 8 1 3 5 7 11 11 9 10 2 5 8 4 6 9 5 6 7 7 8 8 7 8 8 9 8 9 7 7 5 4 5 6 7 7 8 8 9 12
6 2 0 0 3 4 2 5 6 10 7 5 3 7 4 7 8 7 9 6 4 6 7 6 8 7 8 8 7 7 9 10 11 8 7 7 8 9 9 9 8 9 11 12
2 3 1 2 3 1 3 6 6 4 6 7 4 1 8 7 6 9 8 4 5 5 5 7 9 7 8 7 7 7 8 11 11 9 8 8 9 8 8 8 12 12 10 12
4 2 3 6 2 5 7 6 6 3 3 2 3 1 8 5 6 2 3 3 3 6 6 9 7 8 7 7 7 7 9 9 11 10 9 11 12 12 9 10 11 10 10 9
3 3 3 2 4 3 4 3 3 5 3 5 6 3 13 7 4 3 2 4 8 7 8 8 8 8 8 8 8 8 10 13 12 13 10 9 11 13 12 11 11 14 11 9
0 4 1 2 4 2 3 3 2 5 3 4 5 8 9 4 1 6 6 6 7 7 8 9 9 8 11 10 8 9 11 12 13 15 11 8 11 9 10 10 11 11 12 12
2 1 3 5 3 3 1 2 1 2 2 2 6 8 11 2 4 3 5 3 8 9 9 9 9 8 9 9 11 9 11 14 18 12 10 13 14 14 12 13 13 11 13 11
2 1 2 3 2 1 2 2 1 1 3 7 7 6 11 6 8 4 3 7 9 7 8 8 9 9 8 9 8 10 13 17 15 14 10 12 15 14 14 13 15 14 15 15
3 3 0 3 6 6 2 2 1 2 3 4 6 8 4 2 2 3 5 9 9 8 8 8 9 10 8 7 8 11 15 15 14 15 16 16 15 16 15 13 14 16 14 14
4 3 3 4 4 4 3 2 6 5 5 4 1 15 7 0 2 4 9 9 8 7 8 8 8 9 10 12 11 14 13 14 12 14 17 17 15 16 16 15 15 16 18 17
7 2 2 4 3 4 3 5 4 3 2 7 6 12 1 4 5 7 8 8 8 9 9 8 10 10 11 11 12 12 13 13 11 14 15 16 15 15 14 15 16 17 15 15
5 1 6 7 5 4 3 5 7 6 5 5 19 20 24 21 19 12 14 13 9 9 8 8 10 11 12 11 12 14 12 13 14 14 14 15 14 14 15 15 16 16 15 16
4 5 2 5 5 5 8 9 13 19 22 10 19 15 27 14 16 19 18 9 8 8 8 8 11 11 10 12 13 14 15 15 16 14 13 14 15 14 15 15 15 15 15 14
3 2 3 6 8 6 8 18 19 25 25 24 28 32 35 29 25 18 9 7 8 8 7 8 12 13 12 13 14 14 14 14 14 13 13 14 14 14 13 13 14 14 13 12
7 5 3 7 3 6 10 17 22 11 11 26 21 32 15 18 18 5 7 6 9 9 6 8 10 10 11 12 14 14 15 14 13 12 12 13 13 14 13 12 13 12 11 10
8 5 3 5 3 5 7 5 8 17 17 25 16 21 13 12 9 7 7 7 8 5 6 6 6 8 8 9 11 13 13 12 12 11 12 12 13 13 12 11 11 10 8 7
6 5 2 3 4 12 11 5 9 10 12 24 27 26 21 16 6 13 8 4 4 4 3 3 4 5 6 8 11 12 11 11 12 13 13 13 14 14 11 10 9 8 8 10
1 0 4 3 4 10 5 2 4 4 13 16 24 24 16 4 3 8 6 4 3 3 1 2 4 4 6 6 8 10 11 9 13 11 12 13 12 11 11 10 9 8 7 10
4 1 13 7 6 13 11 9 5 6 11 1 15 15 11 8 11 5 3 3 2 5 2 0 2 4 5 5 7 8 9 10 11 8 9 11 11 11 10 8 8 7 9 11
14 14 7 6 6 19 12 7 10 9 3 3 5 8 9 9 8 7 7 6 6 7 3 3 0 3 4 3 4 7 8 10 10 7 9 10 10 8 7 8 8 9 9 11
8 12 13 19 16 4 23 10 19 1 2 3 4 5 7 8 8 8 7 6 7 7 5 4 3 2 4 3 1 4 6 7 10 6 8 9 8 8 9 8 7 7 10 10
8 8 6 4 11 17 17 21 12 7 11 9 5 6 7 8 9 8 6 6 6 5 7 5 4 3 3 3 1 1 5 5 6 7 5 8 8 8 8 6 7 7 7 7
9 14 11 11 15 10 11 17 25 14 13 12 11 12 13 9 12 9 8 8 7 7 5 5 6 5 5 5 3 2 2 4 4 5 4 5 7 7 7 9 7 7 9 7
9 10 13 14 8 14 10 15 19 16 19 18 16 14 14 12 15 10 9 8 6 8 5 5 6 5 6 6 5 3 2 1 3 4 4 2 2 4 4 3 6 15 15 16
Wind_Direction
7 63 60 29 22 17 27 318 280 314 24 347 285 288 275 266 209 238 284 312 315 315 321 332 328 330 327 329 329 326 319 315 327 309 330 318 315 318 305 306 309 325 331 338
49 78 58 42 337 346 301 291 333 300 79 334 284 286 272 240 228 202 252 285 293 310 325 322 319 321 323 314 332 318 309 311 314 302 250 245 289 296 299 309 333 314 323 308
76 106 126 2 23 11 310 309 6 294 315 264 290 272 216 191 188 164 238 251 278 309 328 319 328 321 323 321 310 312 313 311 298 287 286 257 267 281 299 305 305 325 305 288
73 128 181 332 95 24 315 48 332 307 328 297 41 284 240 175 196 217 232 230 297 302 306 313 319 315 319 312 308 309 303 304 309 296 288 279 285 288 287 290 294 296 289 285
158 162 178 242 79 100 228 14 283 307 291 317 201 294 262 121 201 234 207 175 250 291 304 320 292 307 303 298 294 293 297 300 299 300 294 293 289 276 276 279 280 276 289 289
73 27 332 9 296 232 292 284 202 215 228 331 124 58 278 187 200 153 180 211 319 307 312 285 285 310 297 305 301 301 299 302 308 297 293 295 292 291 285 282 279 276 282 282
156 127 100 329 305 168 301 320 319 351 6 234 115 322 248 284 204 187 267 311 282 290 284 304 320 307 305 308 305 307 311 307 306 300 288 287 288 294 284 288 277 278 269 265
97 318 98 348 49 343 6 28 130 258 299 308 142 236 256 176 335 239 219 259 277 307 323 309 302 312 311 316 307 304 309 309 316 309 299 291 288 286 284 275 277 273 272 267
131 227 97 37 347 343 20 63 58 310 137 351 241 273 287 304 198 164 202 329 314 297 292 307 310 309 314 314 308 306 326 326 317 308 312 310 303 292 286 288 282 276 274 276
194 41 0 113 249 73 336 49 112 329 359 290 285 276 248 240 248 176 21 316 287 299 325 319 314 319 314 304 313 339 327 319 312 312 311 307 303 297 292 289 286 282 277 275
132 111 238 45 201 175 156 166 60 83 157 224 301 254 218 281 352 297 294 275 292 326 329 324 314 309 309 322 331 330 324 314 324 319 320 312 305 301 290 286 285 288 290 292
203 134 219 202 79 47 352 229 172 139 237 243 281 267 266 216 198 244 265 282 308 325 316 310 313 327 329 331 335 330 322 318 320 334 317 307 306 304 296 296 302 301 294 293
195 229 0 307 9 12 220 205 231 63 72 213 158 261 120 147 235 245 284 320 320 310 317 330 329 331 333 331 330 323 318 318 331 324 321 315 311 305 317 310 300 298 293 291
158 222 192 202 188 123 193 222 212 152 187 202 226 278 268 281 297 298 317 313 296 297 329 327 329 330 331 336 330 320 323 323 323 319 318 316 316 310 304 303 304 304 300 294
130 201 207 280 260 206 203 218 197 210 217 208 256 261 271 269 288 299 301 280 292 309 327 334 327 328 333 332 325 327 324 325 324 314 313 311 308 307 311 309 305 306 301 296
162 249 80 282 258 243 249 249 232 229 236 248 256 270 267 280 281 280 275 294 295 303 331 336 328 327 335 329 326 323 324 326 317 311 314 313 314 314 313 311 310 309 309 306
155 142 110 263 336 312 283 233 225 207 215 222 233 239 268 275 276 280 293 296 285 296 334 338 324 326 326 329 329 327 326 319 315 322 323 320 317 314 317 320 319 320 318 313
154 148 153 264 6 258 240 197 185 209 239 222 244 249 241 251 276 293 270 267 277 312 335 316 319 322 326 329 326 327 318 326 327 330 327 323 321 320 326 330 329 329 330 338
151 152 212 191 219 298 286 196 170 173 261 220 226 248 253 265 303 287 250 172 265 271 289 303 328 318 319 323 331 324 329 336 335 336 332 330 327 330 333 335 336 350 0 21
164 244 151 112 197 242 237 123 121 115 286 224 197 229 238 194 221 257 170 186 285 254 220 315 320 319 315 323 333 334 344 333 340 337 340 329 331 339 343 342 352 2 24 43
145 240 215 207 248 275 246 151 148 101 244 80 181 210 202 192 213 214 154 262 226 249 241 170 356 306 316 335 334 345 345 336 334 320 346 336 346 343 347 353 5 18 46 50
166 169 187 185 216 270 153 87 189 214 238 196 199 204 188 208 235 259 261 253 265 255 225 188 280 292 302 327 345 353 348 331 315 318 8 349 351 347 351 360 17 31 50 58
215 194 178 196 209 208 183 202 220 163 216 231 217 228 225 222 233 242 249 237 239 240 240 191 190 238 283 277 60 343 335 330 328 342 358 5 5 3 356 2 24 42 41 52
237 210 228 99 219 233 205 239 258 216 233 240 239 236 218 224 246 249 240 244 238 233 227 182 181 222 249 234 147 305 325 328 341 333 4 4 16 18 15 18 18 35 44 55
189 160 195 258 261 301 243 226 239 241 238 247 233 222 231 220 250 238 242 239 226 234 208 175 190 204 220 196 223 197 321 336 352 338 1 9 9 14 21 35 29 44 47 60
181 179 194 229 185 210 239 221 233 224 232 234 234 243 235 223 238 233 230 232 214 231 214 183 198 206 207 194 203 197 155 25 8 14 342 5 60 12 1 23 62 60 64 67